Flag for Cayman Islands Weather past 2 weeks in George Town, Cayman Islands

Now
72 °F

Mild.


Feels Like: 75 °F
Forecast: 77 / 80 °F
Wind: 10 mph from East

Location: Cayo Largo Del Sur

Current Time: Feb 1, 2015 at 3:57:38 AM

Latest Report: Feb 1, 2015 at 3:05 AM


Visibility: N/A

Pressure: 30.07 "Hg

Humidity: 65%

Dew point: 59 °F

Location of George TownLocation

Historic Weather in George Town — Graph

°F

George Town temperature yesterday

Maximum temperature yesterday: 77 °F (at 1:51 PM)
Minimum temperature yesterday: 70 °F (at 12:05 AM)
Average temperature yesterday: 72 °F

Past Weeks' High & Low Weather Summary

 TemperatureHumidityPressure
High82 °F (Jan 23, 11:51 AM)89% (Jan 21, 4:05 AM)30.18 "Hg (Jan 21, 4:05 AM)
Low66 °F (Jan 28, 10:05 PM)42% (Jan 31, 2:52 PM)29.95 "Hg (Jan 24, 2:54 PM)
Average75 °F68%30.05 "Hg
* Reported Jan 17 2:05 AM — Feb 1 2:05 AM, George Town, Weather by CustomWeather, © 2014

Note: Actual official high and low records may vary slightly from our data, if they occured in-between our weather recording intervals... More about our weather records

Advertising

George Town weather history for previous 24 hours

 ConditionsComfort  
Time TempWeatherWind HumidityBarometerVisibility
2:05 AM
Feb 1
72 °FMild.9 mph69%30.09 "HgN/A
1:05 AM72 °FMild.15 mph69%30.09 "HgN/A
12:05 AM73 °FMild.15 mph57%30.09 "HgN/A
11:05 PM
Jan 31
72 °FMild.16 mph69%30.12 "HgN/A
9:51 PM72 °FPassing clouds.21 mph69%30.12 "Hg6 mi
8:51 PM73 °FPassing clouds.20 mph65%30.12 "Hg6 mi
8:05 PM72 °FMild.3 mph69%30.09 "HgN/A
6:51 PM72 °FPassing clouds.6 mph65%30.09 "Hg6 mi
5:52 PM75 °FPassing clouds.6 mph54%30.07 "HgN/A
4:51 PM77 °FSunny.8 mph42%30.07 "Hg10 mi
3:51 PM77 °FPassing clouds.10 mph42%30.07 "HgN/A
2:52 PM77 °FPassing clouds.13 mph42%30.07 "HgN/A
1:51 PM77 °FPassing clouds.13 mph47%30.09 "HgN/A
12:52 PM75 °FPassing clouds.15 mph50%30.12 "HgN/A
11:51 AM75 °FPassing clouds.16 mph50%30.15 "HgN/A
10:55 AM73 °FPassing clouds.17 mph53%30.15 "HgN/A
9:53 AM73 °FPassing clouds.16 mph57%30.15 "HgN/A
8:51 AM70 °FPassing clouds.15 mph64%30.15 "Hg6 mi
7:51 AM70 °FPassing clouds.16 mph60%30.12 "Hg6 mi
6:51 AM70 °FPassing clouds.14 mph64%30.12 "Hg6 mi
6:05 AM70 °FMild.16 mph64%30.09 "HgN/A
5:05 AM70 °FMild.15 mph64%30.09 "HgN/A
4:05 AM70 °FMild.15 mph60%30.09 "HgN/A
3:05 AM70 °FMild.15 mph60%30.09 "HgN/A
Weather by CustomWeather, © 2014

See weather overviewHow to use our weather pages